Weather History for York, PA

Change the Weather History Date:

Monday, February 18, 2013

  Actual Average Record
Temperature  
Mean Temperature 27 °F -  
Max Temperature 37 °F 0 °F 71 °F (2011)
Min Temperature 17 °F - 14 °F (2001)
Degree Days  
Heating Degree Days 38    
Moisture  
Dew Point 7 °F    
Average Humidity 44    
Maximum Humidity 59    
Minimum Humidity 30    
Precipitation  
Precipitation 0.00 in - - ()
Sea Level Pressure  
Sea Level Pressure 30.25 in    
Wind  
Wind Speed 7 mph (West)    
Max Wind Speed 12 mph    
Max Gust Speed -    
Visibility 10 miles    
Events      
Averages and records for this station are not official NWS values.
T = Trace of Precipitation, MM = Missing Value Source: NWS Daily Summary

Daily Weather History Graph

Daily Weather History Graph

Search for Another Location

Airport:

Trip Planner

Search our weather history database for the weather conditions in past years. The results will help you decide how hot, cold, wet, or windy it might be!

Date:

Astronomy

Feb. 18, 2013 Rise Set
Actual Time 6:56 AM EST 5:47 PM EST
Civil Twilight 6:28 AM EST 6:14 PM EST
Nautical Twilight 5:56 AM EST 6:46 PM EST
Astronomical Twilight 5:25 AM EST 7:17 PM EST
Moon 11:31 AM EST (2/18) 1:33 AM EST (2/18)
Length of Visible Light 11h 46m
Length of Day
10h 51m
First Quarter, 58% of the Moon is Illuminated
Feb 18
First Quarter
Feb 25
Full
Mar 4
Last Quarter
Mar 11
New
Mar 19
First Quarter

Hourly Weather History & Observations

Time (EST) Temp. Windchill Dew Point Humidity Pressure Visibility Wind Dir Wind Speed Gust Speed Precip Events Conditions
12:53 AM 19.9 °F 7.9 °F 3.0 °F 48% 30.20 in 10.0 mi WNW 11.5 mph - N/A   Clear
1:53 AM 19.0 °F 9.0 °F 3.0 °F 50% 30.22 in 10.0 mi WNW 8.1 mph - N/A   Clear
2:53 AM 19.0 °F 10.0 °F 3.0 °F 50% 30.22 in 10.0 mi Variable 6.9 mph - N/A   Clear
3:53 AM 19.0 °F 11.1 °F 3.9 °F 52% 30.22 in 10.0 mi WNW 5.8 mph - N/A   Clear
4:53 AM 18.0 °F 11.1 °F 3.9 °F 54% 30.26 in 10.0 mi West 4.6 mph - N/A   Clear
5:53 AM 18.0 °F 7.7 °F 3.9 °F 54% 30.28 in 10.0 mi WNW 8.1 mph - N/A   Clear
6:53 AM 17.1 °F 11.7 °F 5.0 °F 59% 30.31 in 10.0 mi West 3.5 mph - N/A   Clear
7:53 AM 19.9 °F 12.1 °F 5.0 °F 52% 30.34 in 10.0 mi West 5.8 mph - N/A   Clear
8:53 AM 21.9 °F 11.0 °F 3.9 °F 46% 30.35 in 10.0 mi West 10.4 mph - N/A   Clear
9:53 AM 25.0 °F 15.5 °F 3.9 °F 41% 30.35 in 10.0 mi WNW 9.2 mph - N/A   Clear
10:53 AM 28.0 °F 20.0 °F 5.0 °F 38% 30.36 in 10.0 mi West 8.1 mph - N/A   Clear
11:53 AM 28.9 °F 21.9 °F 7.0 °F 40% 30.33 in 10.0 mi West 6.9 mph - N/A   Clear
12:53 PM 32.0 °F 27.5 °F 8.1 °F 37% 30.29 in 10.0 mi Variable 4.6 mph - N/A   Clear
1:53 PM 34.0 °F 28.8 °F 7.0 °F 32% 30.26 in 10.0 mi Variable 5.8 mph - N/A   Clear
2:53 PM 36.0 °F - 8.1 °F 31% 30.25 in 10.0 mi Calm Calm - N/A   Clear
3:53 PM 37.0 °F 33.3 °F 8.1 °F 30% 30.23 in 10.0 mi South 4.6 mph - N/A   Clear
4:53 PM 36.0 °F 30.3 °F 9.0 °F 33% 30.22 in 10.0 mi SSW 6.9 mph - N/A   Clear
5:53 PM 34.0 °F - 9.0 °F 35% 30.24 in 10.0 mi Calm Calm - N/A   Clear
6:53 PM 33.1 °F - 10.0 °F 38% 30.24 in 10.0 mi Calm Calm - N/A   Clear
7:53 PM 28.9 °F - 15.1 °F 56% 30.22 in 10.0 mi Calm Calm - N/A   Clear
8:53 PM 32.0 °F 28.7 °F 12.0 °F 44% 30.20 in 10.0 mi Variable 3.5 mph - N/A   Clear
9:53 PM 30.9 °F 25.2 °F 12.0 °F 46% 30.18 in 10.0 mi SE 5.8 mph - N/A   Clear
10:53 PM 30.9 °F 27.5 °F 12.9 °F 47% 30.16 in 10.0 mi SE 3.5 mph - N/A   Clear
11:53 PM 30.9 °F - 12.9 °F 47% 30.14 in 10.0 mi Calm Calm - N/A   Clear